Weather in Aleksandrovka

Russia / Chelyabinsk Oblast     55°28′41″N   59°49′50″E
temp.,
°C
wind,
m/s
gust,
m/s
humid.,
%
clouds,
%
prec.,
mm/h
press.,
hPa
HPBL,
m
12 may, wed
wed1223:00+12sse11470 0.0 102810
02:00+10s11481 0.0 102810
05:00+10sw11512 0.0 102910
08:00+16w11405 0.0 1029157
11:00+21nw23345 0.0 10291114
14:00+23nw34335 0.0 10282317
17:00+23wnw34345 0.0 10272293
20:00+18nw23555 0.0 102849
13 may, thu
thu1323:00+14n11635 0.0 102811
02:00+13n00585 0.0 102810
05:00+11wsw1162100 0.0 102910
08:00+16w114861 0.0 1029194
11:00+21nw23365 0.0 10281252
14:00+24nw33325 0.0 10271795
17:00+24nw33325 0.0 10261897
20:00+19wnw11525 0.0 102711
14 may, fri
fri1423:00+15ene00655 0.0 102811
02:00+14ssw00675 0.0 102811
05:00+13ssw116916 0.0 102810
08:00+19wsw11510 0.0 1028184
11:00+24w23340 0.0 10271315
14:00+26wnw34275 0.0 10262631
17:00+26wnw34270 0.0 10252362
20:00+21nw11504 0.0 102511
15 may, sat
sat1523:00+16wsw11662 0.0 102612
02:00+14sw22715 0.0 102615
05:00+13sw226850 0.0 102622
08:00+18sw245110 0.0 1026239
11:00+24w34345 0.0 10241284
14:00+26w4528100 0.0 10232028
17:00+26w463063 0.0 10222160
20:00+21w23515 0.0 102260
16 may, sun
sun1623:00+16wsw23634 0.0 102261
02:00+14sw227216 0.0 102228
05:00+13sw227544 0.0 102332
08:00+19wsw235383 0.0 1022227
11:00+24w343396 0.0 10221180
14:00+27w442799 0.0 10212045
17:00+27w452993 0.0 10202367
20:00+22wsw114996 0.0 102011